Date String (YYYY-MM-DD hh:mm:ss) UTC,Instrument flags,absolute air pressure of the measurement (hPa),sample flow rate (lpm),inlet stack bypass flow (lpm),air temperature of the measurement (°C),ambient temperature measured by the external sensor (°C),aerosol sample conditioner tube jacket temperature (°C),OPC LED temperature (°C),internal box temperature (°C),relative humidity of the measurement (%),span deviation,mass concentration of particles derived from Lorenz-Mie calculation of OPC scattering (μg/m³),mass concentration of particles derived from Lorenz-Mie calculation of OPC scattering (μg/m³),mass concentration of particles derived from Lorenz-Mie calculation of OPC scattering (μg/m³)
DateTimeUTC,F1_M11,P_M11,Q1_M11,Q2_M11,T1_M11,T2_M11,T3_M11,T4_M11,T5_M11,U1_M11,ZSPAN_M11,X2_M11,X0_M11,X1_M11
2023-10-07 03:00:00,SystemResetWarning,0840.3,5.00,000.00,027.9,026.4,000.0,036.4,029.6,17.6,0001.0,0006.38,0014.52,0005.54
2023-10-07 03:01:00,SystemResetWarning,0840.4,5.00,000.00,028.0,026.4,000.0,036.4,029.6,17.7,0001.3,0006.42,0015.65,0005.54
2023-10-07 03:02:00,SystemResetWarning,0840.3,5.00,000.00,028.0,026.4,000.0,036.5,029.6,17.7,0001.9,0006.47,0015.66,0005.55
2023-10-07 03:03:00,SystemResetWarning,0840.3,4.99,000.00,028.0,026.4,000.0,036.4,029.6,17.7,0001.8,0006.51,0014.79,0005.56
2023-10-07 03:04:00,SystemResetWarning,0840.4,4.99,000.00,027.9,026.4,000.0,036.4,029.6,17.7,0001.8,0006.46,0014.52,0005.56
2023-10-07 03:05:00,SystemResetWarning,0840.4,5.00,000.00,027.9,026.4,000.0,036.4,029.5,17.7,0001.2,0006.40,0013.72,0005.53
2023-10-07 03:06:00,SystemResetWarning,0840.3,5.02,000.00,027.9,026.4,000.0,036.4,029.5,17.8,0001.2,0006.38,0013.44,0005.53
2023-10-07 03:07:00,SystemResetWarning,0840.3,4.99,000.00,027.9,026.4,000.0,036.4,029.5,17.7,0000.9,0006.41,0013.83,0005.51
2023-10-07 03:08:00,SystemResetWarning,0840.4,5.00,000.00,027.9,026.4,000.0,036.4,029.5,17.7,0000.4,0006.40,0013.77,0005.50
2023-10-07 03:09:00,SystemResetWarning,0840.4,4.99,000.00,027.9,026.4,000.0,036.4,029.5,17.7,0000.9,0006.39,0014.08,0005.49
2023-10-07 03:10:00,SystemResetWarning,0840.3,5.00,000.00,027.9,026.4,000.0,036.4,029.5,17.7,0000.6,0006.41,0014.74,0005.48
2023-10-07 03:11:00,SystemResetWarning,0840.4,5.00,000.00,027.9,026.4,000.0,036.4,029.5,17.7,0001.0,0006.37,0014.57,0005.46
2023-10-07 03:12:00,SystemResetWarning,0840.4,5.00,000.00,027.9,026.4,000.0,036.4,029.5,17.7,0000.7,0006.28,0012.92,0005.44
2023-10-07 03:13:00,SystemResetWarning,0840.3,5.01,000.00,027.9,026.4,000.0,036.4,029.5,17.7,0000.4,0006.19,0012.36,0005.42
2023-10-07 03:14:00,SystemResetWarning,0840.4,4.99,000.00,027.9,026.4,000.0,036.4,029.6,17.8,0000.1,0006.16,0012.39,0005.39
2023-10-07 03:15:00,SystemResetWarning,0840.3,5.00,000.00,027.9,026.4,000.0,036.4,029.5,17.8,0000.1,0006.18,0012.62,0005.38
2023-10-07 03:16:00,SystemResetWarning,0840.4,5.00,000.00,027.9,026.4,000.0,036.4,029.5,17.8,0000.0,0006.20,0012.99,0005.37
2023-10-07 03:17:00,SystemResetWarning,0840.3,5.00,000.00,027.9,026.4,000.0,036.4,029.5,17.8,0000.0,0006.18,0012.97,0005.37
2023-10-07 03:18:00,SystemResetWarning,0840.3,4.99,000.00,027.9,026.4,000.0,036.4,029.5,17.8,0000.0,0006.16,0012.79,0005.36
2023-10-07 03:19:00,SystemResetWarning,0840.3,5.00,000.00,027.9,026.4,000.0,036.4,029.5,17.9,0000.1,0006.15,0013.03,0005.34
2023-10-07 03:20:00,SystemResetWarning,0840.3,5.00,000.00,027.9,026.4,000.0,036.4,029.5,17.9,0000.0,0006.13,0013.06,0005.34
2023-10-07 03:21:00,SystemResetWarning,0840.3,5.01,000.00,027.9,026.4,000.0,036.4,029.5,17.9,0000.0,0006.07,0012.16,0005.33
2023-10-07 03:22:00,SystemResetWarning,0840.4,5.00,000.00,027.9,026.4,000.0,036.4,029.5,17.9,0000.0,0006.10,0012.20,0005.35
2023-10-07 03:23:00,SystemResetWarning,0840.4,5.00,000.00,027.9,026.3,000.0,036.3,029.5,17.9,0000.0,0006.12,0012.95,0005.34
2023-10-07 03:24:00,SystemResetWarning,0840.4,4.99,000.00,027.9,026.3,000.0,036.4,029.5,17.9,0000.0,0006.14,0014.04,0005.35
2023-10-07 03:25:00,SystemResetWarning,0840.4,4.99,000.00,027.9,026.3,000.0,036.3,029.5,17.9,0000.0,0006.18,0014.86,0005.37
2023-10-07 03:26:00,SystemResetWarning,0840.4,5.00,000.00,027.9,026.3,000.0,036.3,029.5,17.9,0000.0,0006.19,0014.68,0005.38
2023-10-07 03:27:00,SystemResetWarning,0840.4,5.01,000.00,027.9,026.3,000.0,036.3,029.5,17.9,0000.0,0006.18,0014.27,0005.38
2023-10-07 03:28:00,SystemResetWarning,0840.4,5.01,000.00,027.9,026.3,000.0,036.3,029.5,17.9,0000.0,0006.18,0014.15,0005.38
2023-10-07 03:29:00,SystemResetWarning,0840.4,5.00,000.00,027.9,026.3,000.0,036.3,029.5,17.9,0000.0,0006.18,0014.37,0005.39
2023-10-07 03:30:00,SystemResetWarning,0840.5,4.99,000.00,027.9,026.3,000.0,036.3,029.5,17.9,0000.0,0006.16,0014.05,0005.41
2023-10-07 03:31:00,SystemResetWarning,0840.4,4.99,000.00,027.9,026.3,000.0,036.3,029.5,17.9,0000.0,0006.19,0013.37,0005.42
2023-10-07 03:32:00,SystemResetWarning,0840.4,5.00,000.00,027.9,026.3,000.0,036.3,029.5,17.9,0000.0,0006.24,0013.31,0005.45
2023-10-07 03:33:00,SystemResetWarning,0840.5,5.01,000.00,027.9,026.3,000.0,036.3,029.4,17.8,0000.0,0006.24,0013.49,0005.46
2023-10-07 03:34:00,SystemResetWarning,0840.4,5.00,000.00,027.8,026.3,000.0,036.3,029.4,17.8,0000.0,0006.28,0013.15,0005.48
2023-10-07 03:35:00,SystemResetWarning,0840.5,5.01,000.00,027.8,026.3,000.0,036.3,029.4,17.9,0000.0,0006.30,0012.38,0005.50
2023-10-07 03:36:00,SystemResetWarning,0840.5,5.00,000.00,027.8,026.3,000.0,036.3,029.4,17.9,0000.0,0006.28,0011.43,0005.49
2023-10-07 03:37:00,SystemResetWarning,0840.5,5.00,000.00,027.8,026.3,000.0,036.3,029.4,17.9,0000.0,0006.30,0012.22,0005.52
2023-10-07 03:38:00,SystemResetWarning,0840.5,4.99,000.00,027.8,026.3,000.0,036.3,029.4,17.9,0000.0,0006.31,0013.18,0005.53
2023-10-07 03:39:00,SystemResetWarning,0840.5,5.00,000.00,027.8,026.3,000.0,036.3,029.4,17.9,0000.0,0006.32,0013.38,0005.54
2023-10-07 03:40:00,SystemResetWarning,0840.5,5.00,000.00,027.8,026.3,000.0,036.3,029.4,17.9,0000.0,0006.33,0013.24,0005.56
2023-10-07 03:41:00,SystemResetWarning,0840.5,5.01,000.00,027.8,026.2,000.0,036.3,029.4,17.9,0000.0,0006.40,0013.57,0005.58
2023-10-07 03:42:00,SystemResetWarning,0840.5,5.00,000.00,027.8,026.2,000.0,036.3,029.4,17.9,-000.4,0006.39,0013.88,0005.58
2023-10-07 03:43:00,SystemResetWarning,0840.5,5.01,000.00,027.8,026.2,000.0,036.3,029.4,17.9,-000.0,0006.40,0013.91,0005.58
2023-10-07 03:44:00,SystemResetWarning,0840.5,5.00,000.00,027.8,026.2,000.0,036.3,029.4,17.9,0000.1,0006.42,0013.95,0005.59
2023-10-07 03:45:00,SystemResetWarning,0840.5,4.99,000.00,027.8,026.2,000.0,036.3,029.4,17.9,0000.4,0006.40,0013.38,0005.58
2023-10-07 03:46:00,SystemResetWarning,0840.5,4.99,000.00,027.8,026.2,000.0,036.3,029.4,17.9,0001.0,0006.36,0013.18,0005.57
2023-10-07 03:47:00,SystemResetWarning,0840.5,5.00,000.00,027.8,026.2,000.0,036.3,029.4,17.9,0000.4,0006.37,0013.07,0005.58
2023-10-07 03:48:00,SystemResetWarning,0840.5,5.00,000.00,027.8,026.2,000.0,036.3,029.4,17.9,0000.2,0006.39,0012.39,0005.57
2023-10-07 03:49:00,SystemResetWarning,0840.5,5.01,000.00,027.8,026.2,000.0,036.3,029.4,17.9,0001.9,0006.38,0011.61,0005.58
2023-10-07 03:50:00,SystemResetWarning,0840.5,5.01,000.00,027.8,026.2,000.0,036.3,029.4,17.9,0002.4,0006.38,0011.46,0005.57
2023-10-07 03:51:00,SystemResetWarning,0840.5,5.01,000.00,027.8,026.2,000.0,036.3,029.4,17.9,0002.5,0006.39,0011.52,0005.58
2023-10-07 03:52:00,SystemResetWarning,0840.5,5.00,000.00,027.8,026.2,000.0,036.3,029.4,17.9,0003.0,0006.38,0011.64,0005.60
2023-10-07 03:53:00,SystemResetWarning,0840.5,4.99,000.00,027.8,026.2,000.0,036.2,029.4,17.9,0003.1,0006.36,0011.40,0005.61
2023-10-07 03:54:00,SystemResetWarning,0840.5,5.00,000.00,027.7,026.2,000.0,036.2,029.4,17.9,0000.6,0006.37,0011.67,0005.62
2023-10-07 03:55:00,SystemResetWarning,0840.5,5.00,000.00,027.7,026.2,000.0,036.2,029.4,17.9,0000.0,0006.42,0012.05,0005.63
2023-10-07 03:56:00,SystemResetWarning,0840.5,5.00,000.00,027.7,026.2,000.0,036.2,029.4,18.0,0000.0,0006.43,0012.37,0005.64
2023-10-07 03:57:00,SystemResetWarning,0840.5,5.00,000.00,027.7,026.2,000.0,036.2,029.4,18.0,0000.0,0006.47,0012.67,0005.66
2023-10-07 03:58:00,SystemResetWarning,0840.5,5.00,000.00,027.7,026.2,000.0,036.2,029.4,18.0,0000.3,0006.49,0012.70,0005.68
2023-10-07 03:59:00,SystemResetWarning,0840.4,5.00,000.00,027.7,026.2,000.0,036.2,029.4,18.0,0000.1,0006.46,0012.42,0005.70
